Location: Cabeza de los Veneras
(40.2000°N, 5.2000°W)
Time: 04:29:57
(UTC+00:00)

BlueWalker 3 - Pass Details

Date: 03 July 2024
Orbit: 480 x 491 km, 53.2° (Epoch: 21 July)

Event Time Altitude Azimuth Distance (km) Brightness Sun altitude
Rises 23:31:36 0° 299° (WNW) 2,538 6.1 -25.7°
Reaches altitude 10° 23:34:00 10° 287° (WNW) 1,654 4.9 -25.8°
Enters shadow 23:34:48 15° 279° (W) 1,392 4.4 -25.9°
